Heraklion, Greece

7:35 PM EET on November 23, 2017 (GMT +0200)
Nikos Kazantzakis

Weather History for LGIR - November, 2013

Change the Weather History Date:

Wednesday, November 6, 2013

  Actual Average Record
Temperature  
Mean Temperature 70 °F -  
Max Temperature 79 °F 67 °F 79 °F (2013)
Min Temperature 62 °F 55 °F 41 °F (2006)
Cooling Degree Days 6    
Growing Degree Days 20 (Base 50)    
Moisture  
Dew Point 58 °F    
Average Humidity 67    
Maximum Humidity 88    
Minimum Humidity 47    
Precipitation  
Precipitation 0.28 in 0.08 in - ()
Sea Level Pressure  
Sea Level Pressure 29.66 in    
Wind  
Wind Speed 15 mph ()    
Max Wind Speed 30 mph    
Max Gust Speed 46 mph    
Visibility 5.9 miles    
Events Rain , Thunderstorm    
Averages and records for this station are not official NWS values.
T = Trace of Precipitation, MM = Missing Value Source: Averaged Metar Reports

Daily Weather History Graph

Daily Weather History Graph

Search for Another Location

Airport or City:

Trip Planner

Search our weather history database for the weather conditions in past years. The results will help you decide how hot, cold, wet, or windy it might be!

Date:

Astronomy

Nov. 06, 2013 Rise Set
Actual Time 6:45 AM EET 5:19 PM EET
Civil Twilight 6:18 AM EET 5:46 PM EET
Nautical Twilight 5:48 AM EET 6:16 PM EET
Astronomical Twilight 5:18 AM EET 6:46 PM EET
Moon 9:38 AM EET (11/6) 8:06 PM EET (11/6)
Length of Visible Light 11h 27m
Length of Day
10h 34m
Waxing Crescent, 11% of the Moon is Illuminated
Nov 6
Waxing Crescent
Nov 10
First Quarter
Nov 17
Full
Nov 25
Last Quarter
Dec 3
New

Hourly Weather History & Observations

Time (EET) Temp. Dew Point Humidity Pressure Visibility Wind Dir Wind Speed Gust Speed Precip Events Conditions
12:20 AM 69.8 °F 57.2 °F 64% 29.80 in 6.2 mi South 15.0 mph - N/A   Partly Cloudy
12:50 AM 69.8 °F 57.2 °F 64% 29.80 in 6.2 mi South 16.1 mph - N/A   Partly Cloudy
1:20 AM 69.8 °F 57.2 °F 64% 29.80 in 6.2 mi South 16.1 mph - N/A   Partly Cloudy
1:50 AM 71.6 °F 59.0 °F 64% 29.77 in 6.2 mi South 19.6 mph - N/A   Partly Cloudy
2:00 AM 71 °F 59 °F 57% 29.79 in 6 mi South 19.6 mph - -   Scattered Clouds
2:20 AM 71.6 °F 59.0 °F 64% 29.77 in 6.2 mi South 24.2 mph - N/A   Scattered Clouds
2:50 AM 69.8 °F 60.8 °F 73% 29.77 in 6.2 mi South 13.8 mph - N/A   Scattered Clouds
3:20 AM 69.8 °F 60.8 °F 73% 29.77 in 6.2 mi SSE 11.5 mph - N/A Rain Light Rain
3:50 AM 68.0 °F 60.8 °F 78% 29.74 in 6.2 mi South 10.4 mph - N/A Rain Light Rain
4:20 AM 68.0 °F 60.8 °F 78% 29.74 in 6.2 mi Variable 4.6 mph - N/A   Scattered Clouds
4:50 AM 68.0 °F 60.8 °F 78% 29.71 in 6.2 mi South 6.9 mph - N/A   Scattered Clouds
5:20 AM 68.0 °F 60.8 °F 78% 29.71 in 6.2 mi South 13.8 mph - N/A   Scattered Clouds
5:50 AM 71.6 °F 59.0 °F 64% 29.68 in 6.2 mi South 19.6 mph 31.1 mph N/A   Scattered Clouds
6:20 AM 71.6 °F 59.0 °F 64% 29.68 in 6.2 mi South 16.1 mph 28.8 mph N/A   Scattered Clouds
6:50 AM 71.6 °F 59.0 °F 64% 29.68 in 6.2 mi South 15.0 mph - N/A   Mostly Cloudy
7:20 AM 71.6 °F 59.0 °F 64% 29.68 in 6.2 mi South 17.3 mph 28.8 mph N/A   Mostly Cloudy
7:50 AM 71.6 °F 59.0 °F 64% 29.68 in 6.2 mi South 18.4 mph - N/A   Scattered Clouds
8:00 AM 71 °F 59 °F 57% 29.69 in 6 mi South 18.4 mph - -   Partly Cloudy
8:20 AM 73.4 °F 59.0 °F 61% 29.68 in 6.2 mi South 18.4 mph - N/A   Mostly Cloudy
8:50 AM 75.2 °F 59.0 °F 57% 29.68 in 6.2 mi SSE 13.8 mph - N/A   Scattered Clouds
9:20 AM 75.2 °F 59.0 °F 57% 29.68 in 6.2 mi South 20.7 mph - N/A   Mostly Cloudy
9:50 AM 73.4 °F 59.0 °F 61% 29.68 in 6.2 mi South 23.0 mph 34.5 mph N/A Rain Light Rain
10:20 AM 73.4 °F 59.0 °F 61% 29.71 in 6.2 mi South 23.0 mph 34.5 mph N/A   Mostly Cloudy
10:50 AM 77.0 °F 59.0 °F 54% 29.65 in 6.2 mi South 23.0 mph 34.5 mph N/A   Mostly Cloudy
11:20 AM 77.0 °F 59.0 °F 54% 29.65 in 6.2 mi South 25.3 mph 36.8 mph N/A   Mostly Cloudy
11:50 AM 75.2 °F 55.4 °F 50% 29.62 in 6.2 mi South 26.5 mph 38.0 mph N/A   Mostly Cloudy
12:20 PM 78.8 °F 57.2 °F 47% 29.65 in 6.2 mi South 23.0 mph 34.5 mph N/A   Mostly Cloudy
12:50 PM 78.8 °F 57.2 °F 47% 29.59 in 6.2 mi South 25.3 mph 36.8 mph N/A   Mostly Cloudy
1:20 PM 78.8 °F 57.2 °F 47% 29.59 in 6.2 mi South 29.9 mph 46.0 mph N/A   Mostly Cloudy
1:50 PM 71.6 °F 59.0 °F 64% 29.59 in 6.2 mi South 26.5 mph 38.0 mph N/A Rain Light Rain
2:00 PM 72 °F 58 °F 53% 29.60 in 2 mi South 26.5 mph - - Rain , Thunderstorm Heavy Thunderstorms and Rain
2:20 PM 69.8 °F 59.0 °F 68% 29.59 in 4.3 mi South 23.0 mph 38.0 mph N/A   Mostly Cloudy
2:50 PM 71.6 °F 55.4 °F 57% 29.62 in 5.0 mi South 20.7 mph - N/A   Mostly Cloudy
3:20 PM 69.8 °F 57.2 °F 64% 29.59 in 5.0 mi SSW 19.6 mph - N/A   Mostly Cloudy
3:50 PM 69.8 °F 53.6 °F 56% 29.59 in 5.0 mi South 10.4 mph - N/A   Mostly Cloudy
4:20 PM 69.8 °F 55.4 °F 60% 29.59 in 5.0 mi SSE 12.7 mph - N/A   Mostly Cloudy
4:50 PM 69.8 °F 55.4 °F 60% 29.59 in 6.2 mi South 13.8 mph - N/A   Mostly Cloudy
5:20 PM 69.8 °F 53.6 °F 56% 29.56 in 6.2 mi South 21.9 mph - N/A   Mostly Cloudy
5:50 PM 66.2 °F 59.0 °F 78% 29.56 in 5.0 mi South 19.6 mph - N/A Rain Rain
6:20 PM 62.6 °F 59.0 °F 88% 29.56 in 5.0 mi South 19.6 mph - N/A Rain Rain
6:50 PM 64.4 °F 59.0 °F 83% 29.56 in 5.0 mi South 11.5 mph - N/A   Mostly Cloudy
7:20 PM 64.4 °F 57.2 °F 77% 29.59 in 6.2 mi SSW 9.2 mph - N/A   Mostly Cloudy
7:50 PM 64.4 °F 59.0 °F 83% 29.59 in 6.2 mi South 13.8 mph - N/A   Mostly Cloudy
8:00 PM 64 °F 58 °F 76% 29.62 in 6 mi South 13.8 mph - -   Partly Cloudy
8:20 PM 64.4 °F 59.0 °F 83% 29.62 in 6.2 mi South 12.7 mph - N/A Rain Light Rain
8:50 PM 64.4 °F 57.2 °F 77% 29.62 in 6.2 mi South 15.0 mph - N/A   Mostly Cloudy
9:20 PM 64.4 °F 57.2 °F 77% 29.62 in 6.2 mi South 13.8 mph - N/A   Mostly Cloudy
9:50 PM 64.4 °F 59.0 °F 83% 29.62 in 6.2 mi South 11.5 mph - N/A   Mostly Cloudy
10:20 PM 64.4 °F 59.0 °F 83% 29.62 in 6.2 mi South 11.5 mph - N/A   Mostly Cloudy
10:50 PM 64.4 °F 59.0 °F 83% 29.62 in 6.2 mi South 8.1 mph - N/A   Mostly Cloudy
11:20 PM 64.4 °F 59.0 °F 83% 29.62 in 6.2 mi South 8.1 mph - N/A Rain Light Rain
11:50 PM 62.6 °F 59.0 °F 88% 29.65 in 6.2 mi South 5.8 mph - N/A Rain Light Rain